Regional Weather Roundup
Issued by NWS Little Rock, AR

Home | Current Version | Previous Version | Graphics & Text | Print | Product List | Glossary Off
Versions: 1 2 3 4 5 6 7 8 9 10 11 12 13 14 15 16 17 18 19 20 21 22 23 24 25 26 27

000
ASUS44 KLZK 271405
RWRLZK

WEATHER ROUNDUP FOR ARKANSAS
NATIONAL WEATHER SERVICE LITTLE ROCK AR
900 AM CDT WED JUL 27 2016

NOTE: "FAIR" INDICATES FEW OR NO CLOUDS BELOW 12,000 FEET WITH NO
SIGNIFICANT WEATHER AND/OR OBSTRUCTIONS TO VISIBILITY.

ARZ001-003-010-029-271500-
NORTHWEST ARKANSAS

CITY           SKY/WX    TMP DP  RH WIND       PRES   REMARKS
FAYETTEVILLE   CLOUDY    75  74  96 CALM      30.01R
FORT SMITH     MOSUNNY   80  72  76 E7        29.96R
HARRISON       CLOUDY    73  73 100 NE3       30.03S FOG
BENTONVILLE    MOSUNNY   75  72  88 E5        30.03R
ROGERS         PTSUNNY   74  72  93 E5        30.03S
SILOAM SPGS      N/A    N/A N/A N/A MISG        N/A
HIGHFILL       SUNNY     78  74  87 E6        30.02R
SPRINGDALE     MOSUNNY   75  73  94 NE5       30.03S
$$

ARZ004-005-016-271500-
NORTH CENTRAL ARKANSAS

CITY           SKY/WX    TMP DP  RH WIND       PRES   REMARKS
BATESVILLE     SUNNY     81  73  78 CALM      29.97F HX  85
FLIPPIN        CLOUDY    73  70  88 N3        29.99R
MTN HOME       CLOUDY    76  76 100 CALM      30.01R
$$

ARZ040-041-271500-
WEST CENTRAL ARKANSAS

CITY           SKY/WX    TMP DP  RH WIND       PRES   REMARKS
MENA           MOSUNNY   82  77  83 CALM      29.99S HX  91
MOUNT IDA      SUNNY     83  74  74 CALM      29.96S HX  89
$$

ARZ009-017-025-026-028-271500-
NORTHEAST ARKANSAS

CITY           SKY/WX    TMP DP  RH WIND       PRES   REMARKS
CORNING          N/A     79  77  94 NE7       29.98F
JONESBORO      SUNNY     81  75  82 NE7       29.96F HX  87
NEWPORT        MOSUNNY   82  77  85 E5        29.97F HX  90
WALNUT RIDGE   SUNNY     81  73  78 NE7       29.96F HX  85
BLYTHEVILLE    SUNNY     82  75  79 E6        29.97F HX  89
NW BLYTHEVILLE SUNNY     82  73  74 E5        29.96F HX  88
$$

ARZ022-023-033-042-044-271500-
CENTRAL ARKANSAS

CITY           SKY/WX    TMP DP  RH WIND       PRES   REMARKS
LITTLE ROCK    CLOUDY    85  75  72 VRB3      29.95S HX  93
N LITTLE ROCK    N/A     83  77  81 E3        29.92S HX  91
JACKSONVILLE   CLOUDY    84  76  75 E3        29.94S HX  93
SEARCY         SUNNY     84  76  76 NE7       29.96F HX  93
HOT SPRINGS    PTSUNNY   81  74  79 CALM      29.97F HX  86
RUSSELLVILLE   SUNNY     77  74  90 CALM      29.96S
$$

ARZ036-271500-
EAST ARKANSAS

CITY           SKY/WX    TMP DP  RH WIND       PRES   REMARKS
WEST MEMPHIS   MOSUNNY   82  76  81 S6        29.94F HX  89
$$

ARZ050-053-066-070-073-271500-
SOUTHWEST ARKANSAS

CITY           SKY/WX    TMP DP  RH WIND       PRES   REMARKS
CAMDEN         RAIN      73  72  94 SE3       29.99R
TEXARKANA      SUNNY     84  74  71 NE6       29.96S HX  91
EL DORADO      HVY RAIN  74  74 100 CALM      30.00R FOG
DE QUEEN       SUNNY     83  74  74 W3        29.93S HX  89
$$

ARZ056-057-069-271500-
SOUTHEAST ARKANSAS

CITY           SKY/WX    TMP DP  RH WIND       PRES   REMARKS
PINE BLUFF     PTSUNNY   76  73  91 W9        29.96S
STUTTGART      SUNNY     82  73  74 E5        29.95S HX  88
MONTICELLO     CLOUDY    78  74  87 W8        29.97S

$$






USA.gov is the U.S. government's official web portal to all federal, state and local government web resources and services.